カタログに戻る

ATLAS 5 CENTAUR R/B

運用中MEO
NORAD 52942·ROCKET BODY·🇺🇸 United States

打ち上げ Jul 1, 2022 から Cape Canaveral Space Force Station

Loading…

次のパス (今後24時間)

TLE

最新Source: Space-Track

元期: Sep 14, 2026, 11:10 UTC

1 52942U 22073C   26257.46566236 -.00000166  00000-0  00000-0 0  9990
2 52942   4.2626  79.0670 0392449  56.4099 307.6259  0.92487881 11727

AllMySatでATLAS 5 CENTAUR R/Bをリアルタイム追跡

Download on the App Store